Location: Cuzcurrita-R�o Tir�n
(42.5415°N, 2.9642°W)
Time: 02:11:49
(UTC+00:00)

SAR-Lupe-1 - Pass Details

Date: 17 January 2021
Orbit: 482 x 484 km, 98.2° (Epoch: 06 March)

Event Time Altitude Azimuth Distance (km) Brightness Sun altitude
Exits shadow 18:23:27 20° 40° (NE) 1,183 5.5 -14.0°
Maximum altitude 18:25:32 39° 99° (E) 739 4.5 -14.4°
Drops below altitude 10° 18:28:53 10° 170° (S) 1,656 6.8 -15.0°
Sets 18:31:01 0° 178° (S) 2,530 7.9 -15.3°
